Вернуться в каталог

STARLINK-31024

АктивенСвязьVLEO
NORAD 58786·PAYLOAD·🇺🇸 United States

Запущен Jan 14, 2024 с Vandenberg Space Force Base

Loading…

Ближайшие Пролёты (ближайшие 24 часа)

TLE

СвежийSource: CelesTrak SupGP

Эпоха: Sep 14, 2026, 22:13 UTC

1 58786C 24011X   26257.92618056  .00009561  00000+0  28239-3 0  2575
2 58786  53.1578 211.4606 0001561  90.6344 100.7412 15.34396739    10

Отслеживайте STARLINK-31024 в реальном времени с AllMySat

Download on the App Store